Terminal Aerodrome Forecast
Issued by NWS

Home | Current Version | Previous Version | Graphics & Text | Print | Product List | Glossary On
Versions: 1 2 3 4 5 6 7 8 9 10 11 12 13 14 15 16 17 18 19
379
FTUS41 KCLE 191244 AAA
TAFFDY
TAF AMD
KFDY 191244Z 1913/2012 10005KT 5SM BR VCTS SCT004 OVC040CB
      TEMPO 1913/1916 1/2SM TSRA OVC004CB
     FM191600 18005KT 5SM -SHRA OVC025
     FM191800 24005KT P6SM VCSH OVC035
     FM192100 VRB03KT P6SM BKN050
     FM200600 VRB03KT P6SM BKN015=

USA.gov is the U.S. government's official web portal to all federal, state and local government web resources and services.